QPF
0.00 0.00 0.00 0.00 0.00 0.00 0.00 0.00 0.00 0.00 0.00 0.00 0.00 0.00 0.00 0.00 0.00 0.01 0.01 0.01 0.01 0.01 0.01 0.01 0.00 0.00 0.00 0.00 0.01 0.01 0.01 0.00 0.00 0.00 0.00 0.00 0.00 0.00 0.00 0.00 0.00 0.00 0.00
0.00 0.00 0.00 0.00 0.00 0.00 0.00 0.00 0.00 0.00 0.00 0.00 0.00 0.00 0.00 0.00 0.00 0.01 0.01 0.01 0.01 0.01 0.01 0.01 0.01 0.01 0.01 0.01 0.01 0.01 0.01 0.01 0.01 0.01 0.00 0.00 0.00 0.00 0.00 0.00 0.00 0.00 0.00
0.00 0.00 0.00 0.00 0.00 0.00 0.00 0.00 0.00 0.00 0.00 0.00 0.00 0.00 0.00 0.00 0.00 0.00 0.01 0.01 0.01 0.01 0.01 0.01 0.01 0.01 0.01 0.01 0.01 0.01 0.01 0.01 0.01 0.01 0.01 0.00 0.00 0.00 0.00 0.00 0.00 0.00 0.00
0.00 0.00 0.00 0.00 0.00 0.00 0.00 0.00 0.00 0.00 0.00 0.00 0.00 0.00 0.00 0.00 0.00 0.00 0.00 0.01 0.01 0.01 0.01 0.01 0.01 0.01 0.01 0.01 0.01 0.01 0.01 0.01 0.01 0.01 0.01 0.00 0.00 0.00 0.00 0.00 0.00 0.00 0.00
0.00 0.00 0.00 0.00 0.00 0.00 0.00 0.00 0.00 0.00 0.00 0.00 0.00 0.00 0.00 0.00 0.00 0.00 0.00 0.01 0.01 0.01 0.01 0.01 0.01 0.01 0.01 0.01 0.01 0.01 0.02 0.02 0.01 0.01 0.01 0.00 0.00 0.00 0.00 0.00 0.00 0.00 0.00
0.00 0.00 0.00 0.00 0.00 0.00 0.00 0.00 0.00 0.00 0.00 0.00 0.00 0.00 0.00 0.00 0.00 0.00 0.00 0.00 0.01 0.01 0.01 0.00 0.01 0.01 0.01 0.01 0.01 0.01 0.01 0.01 0.01 0.01 0.00 0.00 0.00 0.00 0.00 0.00 0.00 0.01 0.00
0.00 0.00 0.00 0.00 0.00 0.00 0.00 0.00 0.00 0.00 0.00 0.00 0.00 0.00 0.00 0.00 0.00 0.00 0.01 0.00 0.00 0.00 0.00 0.00 0.00 0.00 0.01 0.01 0.01 0.01 0.01 0.01 0.01 0.01 0.01 0.00 0.00 0.00 0.01 0.01 0.01 0.01 0.01
0.00 0.00 0.00 0.00 0.00 0.00 0.00 0.00 0.00 0.00 0.00 0.00 0.00 0.00 0.00 0.00 0.00 0.00 0.01 0.00 0.00 0.00 0.00 0.00 0.01 0.00 0.00 0.01 0.01 0.01 0.00 0.01 0.01 0.01 0.01 0.00 0.00 0.00 0.01 0.01 0.01 0.01 0.01
0.00 0.00 0.00 0.00 0.00 0.00 0.00 0.00 0.00 0.00 0.00 0.00 0.00 0.00 0.00 0.00 0.00 0.00 0.00 0.00 0.01 0.01 0.01 0.00 0.00 0.00 0.01 0.01 0.00 0.00 0.00 0.00 0.00 0.00 0.00 0.00 0.00 0.01 0.01 0.01 0.01 0.01 0.01
0.00 0.00 0.00 0.00 0.00 0.00 0.00 0.00 0.00 0.00 0.00 0.00 0.00 0.00 0.00 0.00 0.00 0.00 0.00 0.00 0.01 0.01 0.01 0.01 0.01 0.01 0.01 0.01 0.00 0.00 0.00 0.00 0.00 0.00 0.00 0.00 0.00 0.00 0.01 0.01 0.01 0.02 0.02
0.00 0.00 0.00 0.00 0.00 0.00 0.00 0.00 0.00 0.00 0.00 0.00 0.00 0.00 0.00 0.00 0.00 0.00 0.00 0.00 0.00 0.00 0.00 0.00 0.00 0.01 0.01 0.01 0.01 0.00 0.01 0.01 0.00 0.00 0.00 0.01 0.01 0.00 0.00 0.01 0.01 0.02 0.02
0.00 0.00 0.00 0.00 0.00 0.00 0.00 0.00 0.00 0.00 0.00 0.00 0.00 0.00 0.00 0.00 0.00 0.00 0.00 0.00 0.00 0.00 0.00 0.00 0.00 0.00 0.00 0.00 0.00 0.00 0.01 0.00 0.00 0.01 0.01 0.01 0.01 0.01 0.01 0.01 0.01 0.01 0.01
0.00 0.00 0.00 0.00 0.00 0.00 0.00 0.00 0.00 0.00 0.00 0.00 0.00 0.00 0.00 0.00 0.00 0.00 0.00 0.00 0.00 0.00 0.00 0.00 0.00 0.01 0.00 0.00 0.00 0.00 0.00 0.00 0.00 0.00 0.00 0.01 0.01 0.01 0.01 0.01 0.01 0.01 0.00
0.00 0.00 0.00 0.00 0.00 0.00 0.00 0.00 0.00 0.00 0.00 0.00 0.00 0.00 0.00 0.00 0.00 0.00 0.00 0.00 0.00 0.00 0.00 0.00 0.00 0.00 0.00 0.00 0.00 0.00 0.00 0.00 0.00 0.00 0.00 0.00 0.00 0.00 0.01 0.01 0.01 0.01 0.01
0.00 0.00 0.00 0.00 0.00 0.00 0.00 0.00 0.00 0.00 0.00 0.00 0.00 0.00 0.00 0.00 0.00 0.00 0.00 0.00 0.00 0.00 0.00 0.00 0.00 0.00 0.00 0.00 0.00 0.00 0.00 0.00 0.00 0.00 0.00 0.00 0.00 0.00 0.01 0.01 0.01 0.01 0.01
0.00 0.00 0.00 0.00 0.00 0.00 0.00 0.00 0.00 0.00 0.00 0.00 0.00 0.00 0.00 0.00 0.00 0.00 0.00 0.00 0.00 0.00 0.00 0.00 0.00 0.00 0.00 0.00 0.00 0.00 0.00 0.00 0.00 0.00 0.00 0.00 0.00 0.00 0.00 0.00 0.01 0.01 0.01
0.00 0.00 0.00 0.00 0.00 0.00 0.00 0.00 0.00 0.00 0.00 0.00 0.00 0.00 0.00 0.00 0.00 0.00 0.00 0.00 0.00 0.00 0.00 0.00 0.00 0.00 0.00 0.00 0.00 0.00 0.00 0.00 0.00 0.00 0.00 0.00 0.00 0.00 0.00 0.01 0.01 0.01 0.01
0.00 0.00 0.00 0.00 0.00 0.00 0.00 0.00 0.00 0.00 0.00 0.00 0.00 0.00 0.00 0.00 0.00 0.00 0.00 0.00 0.00 0.00 0.00 0.00 0.00 0.00 0.00 0.00 0.00 0.00 0.00 0.00 0.00 0.00 0.00 0.00 0.00 0.00 0.00 0.01 0.01 0.01 0.01
0.00 0.00 0.00 0.00 0.00 0.00 0.00 0.00 0.00 0.00 0.00 0.00 0.00 0.00 0.00 0.00 0.00 0.00 0.00 0.00 0.00 0.00 0.00 0.00 0.00 0.00 0.00 0.00 0.00 0.00 0.00 0.00 0.00 0.00 0.00 0.00 0.00 0.00 0.00 0.00 0.00 0.00 0.01
0.00 0.00 0.00 0.00 0.00 0.00 0.00 0.00 0.00 0.00 0.00 0.00 0.00 0.00 0.00 0.00 0.00 0.00 0.00 0.00 0.00 0.00 0.00 0.00 0.00 0.00 0.00 0.00 0.00 0.00 0.00 0.00 0.00 0.00 0.00 0.00 0.00 0.00 0.00 0.00 0.00 0.00 0.01
0.00 0.00 0.00 0.00 0.00 0.00 0.00 0.00 0.00 0.00 0.00 0.00 0.00 0.00 0.00 0.00 0.00 0.00 0.00 0.00 0.00 0.00 0.00 0.00 0.00 0.00 0.00 0.00 0.00 0.00 0.00 0.00 0.00 0.00 0.00 0.00 0.00 0.00 0.00 0.00 0.00 0.00 0.01
0.00 0.00 0.00 0.00 0.00 0.00 0.00 0.00 0.00 0.00 0.00 0.00 0.00 0.00 0.00 0.00 0.00 0.00 0.00 0.00 0.00 0.00 0.00 0.00 0.00 0.00 0.00 0.00 0.00 0.00 0.00 0.00 0.00 0.00 0.00 0.00 0.00 0.00 0.00 0.00 0.00 0.00 0.00
0.00 0.00 0.00 0.00 0.00 0.00 0.00 0.00 0.00 0.00 0.00 0.00 0.00 0.00 0.00 0.00 0.00 0.00 0.00 0.00 0.00 0.00 0.00 0.00 0.00 0.00 0.00 0.00 0.00 0.00 0.00 0.00 0.00 0.00 0.00 0.00 0.00 0.00 0.00 0.01 0.00 0.01 0.01
0.00 0.00 0.00 0.00 0.00 0.00 0.00 0.00 0.00 0.00 0.00 0.00 0.00 0.00 0.00 0.00 0.00 0.00 0.00 0.00 0.00 0.00 0.00 0.00 0.00 0.00 0.00 0.00 0.00 0.00 0.00 0.00 0.00 0.00 0.00 0.00 0.00 0.00 0.00 0.01 0.01 0.00 0.01
0.00 0.00 0.00 0.00 0.00 0.00 0.00 0.00 0.00 0.00 0.00 0.00 0.00 0.00 0.00 0.00 0.00 0.00 0.00 0.00 0.00 0.00 0.00 0.00 0.00 0.00 0.00 0.00 0.00 0.00 0.00 0.00 0.00 0.01 0.01 0.01 0.01 0.01 0.01 0.01 0.01 0.00 0.00
0.00 0.00 0.00 0.00 0.00 0.00 0.00 0.00 0.00 0.00 0.00 0.00 0.00 0.00 0.00 0.00 0.00 0.00 0.00 0.00 0.00 0.00 0.00 0.00 0.00 0.00 0.00 0.00 0.00 0.00 0.00 0.00 0.00 0.01 0.01 0.01 0.01 0.01 0.01 0.01 0.01 0.01 0.01
MSLP
999.93 1000.83 1001.73 1002.61 1003.48 1004.33 1005.18 1006.04 1006.89 1007.75 1008.60 1009.43 1010.22 1010.94 1011.59 1012.17 1012.70 1013.19 1013.65 1014.13 1014.63 1015.15 1015.69 1016.24 1016.77 1017.28 1017.73 1018.12 1018.46 1018.73 1018.96 1019.14 1019.30 1019.43 1019.54 1019.64 1019.71 1019.78 1019.83 1019.87 1019.91 1019.95 1019.98
999.19 1000.08 1000.96 1001.84 1002.71 1003.57 1004.44 1005.32 1006.22 1007.11 1007.99 1008.85 1009.65 1010.40 1011.07 1011.67 1012.21 1012.71 1013.20 1013.68 1014.18 1014.70 1015.24 1015.78 1016.31 1016.81 1017.26 1017.66 1018.00 1018.29 1018.54 1018.74 1018.92 1019.07 1019.19 1019.29 1019.37 1019.43 1019.47 1019.49 1019.51 1019.52 1019.54
998.51 999.42 1000.31 1001.19 1002.06 1002.93 1003.81 1004.71 1005.62 1006.53 1007.44 1008.32 1009.15 1009.92 1010.61 1011.24 1011.81 1012.34 1012.84 1013.34 1013.85 1014.37 1014.90 1015.43 1015.95 1016.43 1016.87 1017.26 1017.60 1017.89 1018.14 1018.37 1018.56 1018.73 1018.88 1019.01 1019.10 1019.17 1019.21 1019.23 1019.24 1019.23 1019.22
997.94 998.87 999.77 1000.66 1001.53 1002.40 1003.29 1004.20 1005.12 1006.05 1006.98 1007.88 1008.74 1009.53 1010.26 1010.92 1011.52 1012.08 1012.61 1013.14 1013.65 1014.18 1014.70 1015.21 1015.70 1016.15 1016.56 1016.92 1017.24 1017.52 1017.78 1018.01 1018.22 1018.42 1018.59 1018.75 1018.88 1018.97 1019.03 1019.06 1019.06 1019.03 1018.99
997.49 998.45 999.37 1000.26 1001.14 1002.02 1002.91 1003.82 1004.75 1005.70 1006.64 1007.57 1008.45 1009.28 1010.04 1010.74 1011.38 1011.97 1012.53 1013.07 1013.60 1014.12 1014.63 1015.11 1015.56 1015.97 1016.34 1016.66 1016.95 1017.20 1017.44 1017.66 1017.88 1018.10 1018.30 1018.49 1018.65 1018.77 1018.86 1018.90 1018.90 1018.87 1018.80
997.20 998.17 999.11 1000.01 1000.89 1001.77 1002.67 1003.59 1004.54 1005.50 1006.47 1007.42 1008.33 1009.19 1009.99 1010.72 1011.39 1012.01 1012.59 1013.15 1013.68 1014.19 1014.68 1015.13 1015.55 1015.91 1016.23 1016.50 1016.74 1016.95 1017.15 1017.36 1017.57 1017.78 1018.00 1018.21 1018.40 1018.55 1018.65 1018.71 1018.71 1018.67 1018.58
997.08 998.05 998.99 999.90 1000.79 1001.68 1002.59 1003.53 1004.50 1005.48 1006.47 1007.45 1008.39 1009.27 1010.09 1010.84 1011.54 1012.18 1012.77 1013.34 1013.87 1014.38 1014.84 1015.27 1015.65 1015.97 1016.24 1016.45 1016.64 1016.80 1016.96 1017.12 1017.30 1017.50 1017.71 1017.92 1018.11 1018.27 1018.38 1018.44 1018.44 1018.39 1018.28
997.12 998.09 999.02 999.93 1000.84 1001.75 1002.68 1003.64 1004.64 1005.65 1006.67 1007.67 1008.62 1009.52 1010.35 1011.11 1011.81 1012.45 1013.05 1013.62 1014.15 1014.65 1015.10 1015.51 1015.87 1016.15 1016.38 1016.56 1016.69 1016.80 1016.90 1017.01 1017.14 1017.30 1017.47 1017.65 1017.82 1017.96 1018.06 1018.11 1018.10 1018.04 1017.91
997.33 998.28 999.20 1000.12 1001.04 1001.97 1002.94 1003.93 1004.96 1006.00 1007.04 1008.04 1009.00 1009.90 1010.72 1011.47 1012.16 1012.80 1013.39 1013.95 1014.48 1014.98 1015.44 1015.84 1016.19 1016.47 1016.68 1016.82 1016.92 1016.98 1017.03 1017.08 1017.15 1017.24 1017.36 1017.48 1017.60 1017.69 1017.76 1017.78 1017.75 1017.66 1017.53
997.69 998.60 999.52 1000.44 1001.38 1002.35 1003.35 1004.39 1005.44 1006.50 1007.55 1008.55 1009.50 1010.37 1011.17 1011.90 1012.56 1013.17 1013.76 1014.31 1014.84 1015.35 1015.83 1016.26 1016.62 1016.91 1017.13 1017.27 1017.35 1017.38 1017.38 1017.38 1017.37 1017.39 1017.42 1017.47 1017.51 1017.55 1017.56 1017.53 1017.47 1017.36 1017.21
998.18 999.07 999.98 1000.92 1001.88 1002.88 1003.92 1004.98 1006.06 1007.13 1008.17 1009.16 1010.08 1010.91 1011.67 1012.36 1012.98 1013.57 1014.14 1014.69 1015.23 1015.77 1016.27 1016.74 1017.15 1017.48 1017.73 1017.89 1017.97 1017.99 1017.96 1017.90 1017.83 1017.77 1017.72 1017.67 1017.63 1017.59 1017.53 1017.46 1017.36 1017.22 1017.06
998.78 999.67 1000.59 1001.54 1002.53 1003.56 1004.62 1005.70 1006.79 1007.85 1008.88 1009.83 1010.71 1011.49 1012.20 1012.84 1013.43 1013.99 1014.54 1015.10 1015.66 1016.23 1016.78 1017.30 1017.76 1018.15 1018.45 1018.65 1018.75 1018.77 1018.73 1018.63 1018.51 1018.37 1018.24 1018.11 1017.98 1017.86 1017.74 1017.61 1017.47 1017.31 1017.14
999.50 1000.39 1001.32 1002.30 1003.32 1004.37 1005.45 1006.54 1007.62 1008.66 1009.65 1010.56 1011.38 1012.12 1012.77 1013.36 1013.92 1014.46 1015.00 1015.57 1016.16 1016.76 1017.36 1017.94 1018.47 1018.92 1019.27 1019.51 1019.65 1019.68 1019.63 1019.51 1019.35 1019.16 1018.95 1018.74 1018.55 1018.36 1018.17 1017.99 1017.81 1017.63 1017.45
1000.31 1001.22 1002.18 1003.19 1004.23 1005.31 1006.39 1007.48 1008.53 1009.54 1010.48 1011.34 1012.11 1012.79 1013.40 1013.96 1014.49 1015.02 1015.57 1016.15 1016.76 1017.40 1018.04 1018.67 1019.24 1019.74 1020.15 1020.43 1020.59 1020.64 1020.59 1020.46 1020.26 1020.03 1019.77 1019.51 1019.25 1019.00 1018.77 1018.55 1018.34 1018.14 1017.95
1001.19 1002.14 1003.14 1004.18 1005.25 1006.33 1007.42 1008.48 1009.51 1010.48 1011.37 1012.18 1012.90 1013.55 1014.12 1014.66 1015.18 1015.71 1016.27 1016.87 1017.50 1018.16 1018.83 1019.49 1020.09 1020.62 1021.04 1021.35 1021.52 1021.58 1021.52 1021.38 1021.16 1020.89 1020.60 1020.30 1020.00 1019.71 1019.45 1019.20 1018.97 1018.76 1018.55
1002.11 1003.11 1004.15 1005.23 1006.32 1007.41 1008.49 1009.54 1010.53 1011.46 1012.32 1013.09 1013.78 1014.40 1014.96 1015.50 1016.03 1016.57 1017.14 1017.75 1018.39 1019.06 1019.73 1020.38 1020.98 1021.50 1021.92 1022.21 1022.38 1022.43 1022.36 1022.20 1021.96 1021.67 1021.35 1021.02 1020.70 1020.39 1020.10 1019.84 1019.60 1019.37 1019.15
1003.03 1004.08 1005.18 1006.29 1007.40 1008.50 1009.58 1010.60 1011.58 1012.48 1013.30 1014.05 1014.73 1015.35 1015.92 1016.47 1017.02 1017.58 1018.16 1018.78 1019.42 1020.07 1020.72 1021.33 1021.89 1022.37 1022.75 1023.00 1023.14 1023.16 1023.06 1022.88 1022.62 1022.31 1021.97 1021.63 1021.28 1020.96 1020.66 1020.39 1020.13 1019.89 1019.66
1003.92 1005.02 1006.16 1007.31 1008.44 1009.56 1010.63 1011.65 1012.60 1013.49 1014.31 1015.05 1015.74 1016.37 1016.97 1017.55 1018.12 1018.70 1019.29 1019.90 1020.52 1021.14 1021.73 1022.29 1022.78 1023.19 1023.50 1023.69 1023.78 1023.75 1023.62 1023.41 1023.13 1022.80 1022.45 1022.09 1021.74 1021.40 1021.10 1020.81 1020.55 1020.30 1020.05
1004.74 1005.90 1007.07 1008.25 1009.41 1010.54 1011.61 1012.63 1013.59 1014.48 1015.30 1016.06 1016.76 1017.43 1018.06 1018.67 1019.27 1019.86 1020.46 1021.05 1021.63 1022.19 1022.72 1023.20 1023.60 1023.92 1024.15 1024.28 1024.30 1024.22 1024.06 1023.81 1023.52 1023.17 1022.81 1022.44 1022.08 1021.74 1021.42 1021.13 1020.86 1020.59 1020.33
1005.50 1006.69 1007.90 1009.10 1010.28 1011.42 1012.51 1013.54 1014.50 1015.40 1016.24 1017.03 1017.77 1018.46 1019.13 1019.77 1020.39 1020.99 1021.57 1022.13 1022.67 1023.16 1023.61 1023.99 1024.31 1024.55 1024.69 1024.75 1024.72 1024.60 1024.40 1024.14 1023.83 1023.48 1023.11 1022.74 1022.37 1022.02 1021.69 1021.39 1021.11 1020.84 1020.57
1006.21 1007.41 1008.64 1009.86 1011.06 1012.21 1013.31 1014.35 1015.33 1016.25 1017.12 1017.93 1018.70 1019.43 1020.12 1020.78 1021.40 1022.00 1022.55 1023.07 1023.55 1023.97 1024.33 1024.64 1024.87 1025.03 1025.11 1025.11 1025.04 1024.89 1024.68 1024.42 1024.10 1023.76 1023.40 1023.02 1022.66 1022.31 1021.97 1021.66 1021.37 1021.10 1020.82
1006.88 1008.09 1009.32 1010.54 1011.75 1012.91 1014.02 1015.07 1016.07 1017.01 1017.90 1018.74 1019.53 1020.28 1020.98 1021.64 1022.26 1022.83 1023.35 1023.82 1024.23 1024.58 1024.87 1025.09 1025.26 1025.36 1025.40 1025.37 1025.28 1025.13 1024.92 1024.67 1024.38 1024.05 1023.70 1023.34 1022.98 1022.64 1022.30 1021.99 1021.70 1021.42 1021.14
1007.55 1008.74 1009.96 1011.18 1012.37 1013.54 1014.65 1015.72 1016.72 1017.68 1018.59 1019.44 1020.24 1021.00 1021.70 1022.35 1022.94 1023.47 1023.94 1024.35 1024.70 1024.98 1025.20 1025.37 1025.48 1025.54 1025.56 1025.52 1025.44 1025.31 1025.13 1024.91 1024.65 1024.35 1024.03 1023.70 1023.36 1023.02 1022.70 1022.39 1022.10 1021.83 1021.56
1008.22 1009.39 1010.58 1011.78 1012.96 1014.12 1015.23 1016.29 1017.31 1018.27 1019.18 1020.04 1020.84 1021.59 1022.28 1022.90 1023.46 1023.94 1024.36 1024.71 1024.99 1025.21 1025.37 1025.49 1025.57 1025.61 1025.62 1025.59 1025.52 1025.43 1025.29 1025.11 1024.89 1024.64 1024.36 1024.06 1023.75 1023.43 1023.13 1022.84 1022.56 1022.30 1022.04
1008.92 1010.05 1011.21 1012.38 1013.54 1014.67 1015.77 1016.83 1017.84 1018.80 1019.71 1020.56 1021.35 1022.08 1022.75 1023.34 1023.85 1024.29 1024.65 1024.94 1025.16 1025.32 1025.44 1025.52 1025.57 1025.60 1025.60 1025.59 1025.55 1025.48 1025.38 1025.25 1025.08 1024.87 1024.64 1024.37 1024.10 1023.82 1023.54 1023.27 1023.02 1022.78 1022.54
1009.62 1010.71 1011.83 1012.96 1014.09 1015.20 1016.28 1017.32 1018.32 1019.27 1020.17 1021.01 1021.79 1022.50 1023.14 1023.70 1024.17 1024.56 1024.87 1025.11 1025.28 1025.40 1025.48 1025.52 1025.55 1025.56 1025.56 1025.55 1025.52 1025.48 1025.41 1025.31 1025.18 1025.02 1024.82 1024.60 1024.37 1024.12 1023.88 1023.65 1023.42 1023.21 1022.99
Thickness
5684 5683 5682 5680 5678 5675 5671 5669 5665 5661 5656 5651 5646 5640 5635 5629 5624 5617 5611 5605 5599 5593 5587 5582 5576 5570 5563 5557 5551 5545 5538 5532 5524 5521 5517 5511 5504 5498 5491 5483 5476 5468 5462
5680 5679 5677 5675 5673 5670 5667 5665 5661 5656 5652 5647 5642 5636 5631 5625 5620 5614 5607 5601 5595 5589 5583 5577 5570 5564 5557 5551 5544 5538 5532 5526 5519 5512 5507 5501 5494 5488 5481 5473 5465 5458 5451
5674 5673 5671 5669 5667 5665 5663 5660 5656 5652 5647 5642 5637 5632 5626 5621 5615 5610 5603 5597 5591 5585 5579 5572 5565 5558 5551 5544 5538 5532 5526 5520 5512 5504 5497 5491 5485 5478 5470 5462 5454 5446 5439
5666 5666 5665 5664 5663 5660 5658 5654 5650 5646 5642 5637 5632 5626 5621 5616 5610 5604 5598 5592 5585 5579 5573 5566 5560 5553 5546 5539 5532 5525 5518 5510 5503 5494 5487 5480 5473 5467 5458 5449 5442 5434 5427
5658 5658 5658 5657 5656 5653 5650 5647 5644 5639 5635 5630 5625 5619 5615 5609 5604 5598 5592 5585 5579 5572 5565 5559 5553 5546 5540 5534 5526 5518 5510 5501 5492 5484 5476 5469 5462 5454 5445 5438 5429 5422 5415
5650 5650 5650 5649 5647 5645 5643 5640 5635 5631 5627 5622 5617 5612 5607 5603 5598 5592 5585 5578 5572 5565 5558 5551 5545 5538 5532 5526 5519 5512 5504 5494 5484 5475 5466 5458 5451 5443 5435 5425 5414 5407 5400
5641 5642 5641 5641 5639 5637 5635 5631 5627 5623 5619 5614 5610 5605 5600 5595 5590 5584 5578 5571 5564 5557 5551 5543 5537 5530 5523 5516 5510 5503 5495 5487 5479 5469 5458 5450 5441 5434 5424 5413 5401 5391 5383
5633 5633 5633 5632 5631 5629 5626 5623 5620 5616 5612 5607 5602 5597 5591 5586 5581 5576 5569 5562 5555 5549 5543 5536 5529 5522 5515 5508 5500 5492 5483 5476 5469 5460 5451 5441 5431 5422 5412 5401 5389 5380 5372
5624 5625 5626 5625 5623 5621 5618 5615 5611 5607 5602 5598 5593 5588 5583 5577 5572 5567 5561 5553 5546 5539 5533 5527 5521 5513 5507 5500 5491 5482 5473 5464 5457 5448 5439 5429 5420 5409 5399 5387 5377 5366 5359
5618 5619 5618 5618 5616 5613 5610 5606 5602 5598 5593 5589 5583 5579 5574 5568 5563 5558 5553 5546 5538 5530 5523 5517 5511 5505 5498 5490 5482 5472 5462 5454 5446 5436 5426 5416 5406 5396 5385 5375 5364 5353 5345
5610 5611 5610 5609 5607 5605 5600 5597 5593 5588 5583 5578 5573 5568 5563 5558 5553 5549 5544 5538 5530 5522 5514 5507 5501 5495 5488 5481 5473 5463 5454 5445 5435 5425 5414 5403 5393 5382 5372 5363 5353 5342 5332
5602 5602 5601 5600 5598 5595 5591 5586 5583 5579 5574 5568 5562 5556 5551 5547 5543 5539 5534 5529 5522 5514 5505 5497 5491 5485 5478 5470 5461 5453 5444 5434 5423 5411 5400 5390 5379 5369 5360 5351 5342 5332 5323
5593 5593 5592 5590 5588 5585 5582 5578 5574 5570 5565 5559 5553 5546 5540 5535 5532 5528 5523 5518 5511 5503 5495 5488 5481 5474 5466 5457 5449 5440 5431 5420 5409 5398 5387 5377 5367 5358 5349 5340 5331 5323 5314
5585 5583 5582 5580 5577 5574 5572 5569 5566 5562 5556 5550 5544 5538 5531 5525 5520 5516 5510 5505 5499 5491 5483 5476 5469 5461 5453 5444 5436 5426 5417 5407 5397 5386 5375 5365 5355 5346 5338 5329 5320 5312 5304
5577 5575 5573 5571 5568 5563 5559 5556 5555 5552 5551 5545 5538 5532 5525 5517 5512 5508 5502 5494 5487 5480 5472 5463 5454 5446 5438 5430 5422 5413 5404 5394 5384 5374 5363 5353 5344 5335 5326 5318 5310 5302 5294
5569 5567 5564 5561 5557 5552 5548 5541 5539 5539 5537 5534 5530 5525 5518 5512 5504 5498 5492 5485 5478 5471 5462 5452 5443 5435 5427 5419 5410 5401 5392 5382 5372 5361 5351 5341 5332 5323 5315 5307 5299 5291 5284
5564 5560 5556 5553 5549 5544 5540 5535 5528 5522 5521 5518 5516 5512 5507 5500 5494 5487 5481 5474 5467 5460 5450 5441 5433 5425 5417 5409 5399 5390 5379 5370 5359 5349 5339 5330 5321 5313 5305 5297 5289 5282 5276
5554 5552 5549 5545 5541 5537 5532 5527 5523 5517 5508 5501 5499 5497 5493 5488 5482 5476 5469 5462 5453 5446 5439 5431 5423 5415 5407 5397 5388 5378 5368 5357 5347 5337 5328 5319 5311 5302 5295 5287 5280 5274 5268
5546 5543 5541 5537 5532 5528 5523 5518 5512 5506 5499 5491 5485 5481 5478 5474 5468 5463 5457 5450 5442 5434 5427 5420 5413 5404 5396 5386 5377 5367 5356 5346 5336 5326 5317 5309 5301 5293 5285 5278 5272 5268 5262
5537 5535 5533 5529 5524 5519 5514 5508 5501 5495 5488 5481 5475 5470 5466 5461 5455 5449 5444 5438 5432 5424 5417 5410 5402 5394 5385 5376 5366 5356 5346 5336 5326 5316 5307 5299 5291 5284 5277 5271 5265 5260 5255
5528 5525 5523 5519 5514 5510 5505 5499 5493 5486 5479 5472 5465 5461 5459 5452 5446 5439 5433 5427 5421 5414 5407 5400 5392 5384 5375 5366 5356 5346 5336 5326 5316 5307 5298 5290 5282 5276 5270 5264 5259 5254 5250
5519 5517 5513 5509 5504 5499 5494 5489 5483 5477 5470 5463 5456 5452 5449 5442 5436 5429 5423 5417 5410 5404 5397 5390 5382 5374 5365 5356 5347 5337 5327 5317 5308 5299 5290 5283 5276 5270 5264 5259 5253 5249 5244
5510 5506 5502 5498 5494 5490 5483 5478 5473 5467 5460 5453 5448 5443 5437 5431 5425 5419 5413 5407 5400 5394 5387 5380 5373 5364 5356 5347 5338 5329 5319 5310 5301 5292 5284 5277 5270 5264 5258 5253 5248 5244 5240
5501 5498 5494 5489 5484 5478 5473 5468 5463 5457 5450 5444 5439 5433 5427 5422 5416 5410 5404 5397 5391 5384 5378 5371 5363 5355 5347 5338 5329 5321 5312 5304 5295 5287 5279 5272 5265 5259 5254 5248 5244 5239 5236
5491 5488 5484 5480 5475 5469 5463 5458 5453 5447 5441 5436 5430 5425 5419 5413 5407 5401 5395 5388 5382 5375 5368 5362 5354 5347 5339 5330 5322 5313 5305 5297 5289 5282 5275 5268 5261 5255 5250 5245 5240 5236 5233
5481 5479 5475 5470 5465 5460 5455 5449 5444 5438 5432 5427 5422 5416 5410 5404 5398 5392 5386 5380 5373 5366 5360 5353 5346 5338 5330 5322 5314 5306 5299 5291 5284 5277 5271 5264 5258 5253 5247 5243 5239 5235 5232